Flag for Sweden Weather past 2 weeks in Gävle, Sweden

Now
71 °F

Sunny.


Feels Like: 75 °F
Forecast: 59 / 70 °F
Wind: 2 mph from East

Location: Films Kyrkby

Current Time: Jul 4, 2015 at 9:17:28 PM

Latest Report: Jul 4, 2015 at 8:00 PM


Visibility: 31 mi

Pressure: 30.08 "Hg

Humidity: 63%

Dew point: 58 °F

Location of GävleLocation

Historic Weather in Gävle — Graph

°F

Gävle temperature yesterday

Maximum temperature yesterday: 83 °F (at 4:00 PM)
Minimum temperature yesterday: 62 °F (at 4:00 AM)
Average temperature yesterday: 74 °F

Past Weeks' High & Low Weather Summary

 TemperatureHumidityPressure
High86 °F (Jul 2, 3:00 PM)100% (Jul 1, 5:00 AM)30.31 "Hg (Jul 1, 5:00 AM)
Low39 °F (Jun 28, 4:00 AM)30% (Jul 2, 4:00 PM)29.62 "Hg (Jun 24, 8:00 AM)
Average61 °F76%29.94 "Hg
* Reported Jun 19 8:00 PM — Jul 4 8:00 PM, Gävle, Weather by CustomWeather, © 2015

Note: Actual official high and low records may vary slightly from our data, if they occured in-between our weather recording intervals... More about our weather records

Advertising

Gävle weather history for previous 24 hours

 ConditionsComfort  
Time TempWeatherWind HumidityBarometerVisibility
8:00 PM
Sat, Jul 4
71 °FSunny.2 mph63%30.08 "Hg31 mi
7:00 PM73 °FPassing clouds.3 mph60%30.08 "Hg28 mi
6:00 PM78 °FSunny.1 mph52%30.08 "Hg25 mi
5:00 PM78 °FSunny.2 mph51%30.09 "Hg22 mi
4:00 PM77 °FPassing clouds.1 mph57%30.10 "Hg31 mi
3:00 PM74 °FOvercast.1 mph58%30.12 "Hg28 mi
2:00 PM75 °FPassing clouds.2 mph54%30.12 "Hg25 mi
1:00 PM73 °FPassing clouds.3 mph54%30.14 "Hg25 mi
12:00 PM73 °FSunny.3 mph58%30.13 "Hg28 mi
11:00 AM74 °FSunny.2 mph61%30.13 "Hg28 mi
10:00 AM72 °FPassing clouds.3 mph66%30.13 "Hg25 mi
9:00 AM69 °FSunny.3 mph68%30.14 "Hg28 mi
8:00 AM70 °FPartly sunny.2 mph72%30.13 "Hg25 mi
7:00 AM70 °FScattered clouds.3 mph70%30.10 "Hg19 mi
6:00 AM67 °FSunny.No wind80%30.10 "Hg19 mi
5:00 AM62 °FSunny.No wind87%30.09 "Hg25 mi
4:00 AM62 °FSunny.No wind85%30.09 "Hg31 mi
3:00 AM62 °FClear.1 mph85%30.10 "Hg31 mi
2:00 AM64 °FPassing clouds.1 mph80%30.11 "Hg31 mi
1:00 AM64 °FOvercast.1 mph82%30.12 "Hg22 mi
12:00 AM66 °FClear.1 mph72%30.12 "Hg25 mi
11:00 PM
Fri, Jul 3
70 °FClear.1 mph63%30.12 "Hg28 mi
10:00 PM73 °FSunny.2 mph56%30.11 "Hg31 mi
9:00 PM76 °FSunny.2 mph47%30.11 "Hg31 mi
Weather by CustomWeather, © 2015

See weather overviewHow to use our weather pages